SL-16 R/B (17590 NORAD) Tracking and Keplerian Element Data

This shows tracking and keplerian element data for the satellite.

Feedback or suggestion? Click here.




ElementValue
Catalog17590
NameSL-16 R/B
Epoch Orbit80095
Epoch Day15.93777525
Epoch Year2022
RAAN225.2476
Inclination70.9999
Eccentricity0.0007364
Argument of Perigee270.0627
Mean Anonmoly89.9653
Mean Motion14.16809976
Decay Rate-1.61E-06
L11 17590U 87027B 22015.93777525 -.00000161 00000+0 -56666-4 0 9993
L22 17590 70.9999 225.2476 0007364 270.0627 89.9653 14.16809976800952

Live tracking and technical data element details for SL-16 R/B (NORAD 17590). SL-16 R/B can be tracked NOW for your location showing map with azimuth and elevation plus other details from your city location.

Track the satellite on the map from your city or location and see movement details for azimuth, elevation, latitude, longitude, range, height, and movement on the map or in text.







IsCatalogInMostPopularTable: catalog: 17590, numindb: 306
Update: records affected: 1



GetName: 17590 SL-16 R/B

Hit Count: updated at: Mon, 17 Jan 2022 00:48:01 GMT